Weather History for Windsor Locks, CT

Change the Weather History Date:

Tuesday, October 8, 2013

  Actual Average Record
Temperature  
Mean Temperature 57 °F 55 °F  
Max Temperature 68 °F 66 °F 85 °F (1990)
Min Temperature 45 °F 44 °F 27 °F (1954)
Degree Days  
Heating Degree Days 8 11  
Month to date heating degree days 24 75  
Since 1 July heating degree days 157 197  
Cooling Degree Days 0 0  
Month to date cooling degree days 5 5  
Year to date cooling degree days 891 754  
Growing Degree Days 7 (Base 50)    
Moisture  
Dew Point 43 °F    
Average Humidity 60    
Maximum Humidity 86    
Minimum Humidity 34    
Precipitation  
Precipitation 0.00 in 0.15 in 4.41 in (2005)
Month to date precipitation 1.97 1.21  
Year to date precipitation 43.55 35.36  
Snow  
Snow 0.00 in 0.00 in 0.00 in (2009)
Month to date snowfall 0.0 0.0  
Since 1 July snowfall 0.0 0.0  
Since 1 September snowfall 0.0 0.0  
Snow Depth 0.00 in    
Sea Level Pressure  
Sea Level Pressure 30.19 in    
Wind  
Wind Speed 6 mph (NNW)    
Max Wind Speed 17 mph    
Max Gust Speed 22 mph    
Visibility 10 miles    
Events      
T = Trace of Precipitation, MM = Missing Value Source: NWS Daily Summary

Daily Weather History Graph

Daily Weather History Graph

Search for Another Location

Airport:

Trip Planner

Search our weather history database for the weather conditions in past years. The results will help you decide how hot, cold, wet, or windy it might be!

Date:

Astronomy

Oct. 08, 2013 Rise Set
Actual Time 6:55 AM EDT 6:20 PM EDT
Civil Twilight 6:27 AM EDT 6:48 PM EDT
Nautical Twilight 5:55 AM EDT 7:20 PM EDT
Astronomical Twilight 5:22 AM EDT 7:52 PM EDT
Moon 10:50 AM EDT (10/8) 8:50 PM EDT (10/8)
Length of Visible Light 12h 20m
Length of Day
11h 24m
Waxing Crescent, 16% of the Moon is Illuminated
Oct 8
Waxing Crescent
Oct 11
First Quarter
Oct 18
Full
Oct 26
Last Quarter
Nov 3
New

Hourly Weather History & Observations

Time (EDT) Temp. Dew Point Humidity Pressure Visibility Wind Dir Wind Speed Gust Speed Precip Events Conditions
12:51 AM 57.0 °F 48.0 °F 72% 29.96 in 10.0 mi NW 6.9 mph - N/A   Mostly Cloudy
1:51 AM 55.0 °F 46.0 °F 72% 30.00 in 10.0 mi West 5.8 mph - N/A   Scattered Clouds
2:51 AM 54.0 °F 45.0 °F 72% 30.01 in 10.0 mi WNW 4.6 mph - N/A   Partly Cloudy
3:51 AM 52.0 °F 45.0 °F 77% 30.04 in 10.0 mi NNW 3.5 mph - N/A   Clear
4:51 AM 52.0 °F 44.1 °F 74% 30.07 in 10.0 mi Calm Calm - N/A   Clear
5:51 AM 48.9 °F 45.0 °F 86% 30.10 in 10.0 mi NW 4.6 mph - N/A   Scattered Clouds
6:51 AM 48.0 °F 44.1 °F 86% 30.12 in 10.0 mi NW 8.1 mph - N/A   Mostly Cloudy
7:51 AM 52.0 °F 44.1 °F 74% 30.16 in 10.0 mi NW 4.6 mph - N/A   Mostly Cloudy
8:51 AM 55.0 °F 44.1 °F 67% 30.19 in 10.0 mi NW 11.5 mph - N/A   Scattered Clouds
9:51 AM 59.0 °F 43.0 °F 55% 30.22 in 10.0 mi WNW 8.1 mph - N/A   Partly Cloudy
10:51 AM 61.0 °F 39.9 °F 46% 30.22 in 10.0 mi NW 15.0 mph 21.9 mph N/A   Partly Cloudy
11:51 AM 63.0 °F 41.0 °F 45% 30.23 in 10.0 mi North 9.2 mph 17.3 mph N/A   Partly Cloudy
12:51 PM 64.9 °F 37.9 °F 37% 30.22 in 10.0 mi NNE 8.1 mph - N/A   Scattered Clouds
1:51 PM 66.0 °F 39.0 °F 37% 30.20 in 10.0 mi North 8.1 mph - N/A   Mostly Cloudy
2:51 PM 66.9 °F 37.0 °F 33% 30.21 in 10.0 mi North 8.1 mph - N/A   Mostly Cloudy
3:51 PM 66.9 °F 37.0 °F 33% 30.23 in 10.0 mi North 11.5 mph - N/A   Mostly Cloudy
4:51 PM 64.9 °F 39.0 °F 39% 30.24 in 10.0 mi North 4.6 mph - N/A   Mostly Cloudy
5:51 PM 61.0 °F 42.1 °F 50% 30.25 in 10.0 mi North 4.6 mph - N/A   Mostly Cloudy
6:51 PM 55.0 °F 45.0 °F 69% 30.27 in 10.0 mi NNW 5.8 mph - N/A   Scattered Clouds
7:51 PM 53.1 °F 45.0 °F 74% 30.30 in 10.0 mi Calm Calm - N/A   Scattered Clouds
8:51 PM 51.1 °F 43.0 °F 74% 30.32 in 10.0 mi North 3.5 mph - N/A   Partly Cloudy
9:51 PM 50.0 °F 42.1 °F 74% 30.34 in 10.0 mi North 3.5 mph - N/A   Partly Cloudy
10:51 PM 46.9 °F 42.1 °F 83% 30.35 in 10.0 mi North 3.5 mph - N/A   Partly Cloudy
11:51 PM 46.9 °F 42.1 °F 83% 30.36 in 10.0 mi North 5.8 mph - N/A   Mostly Cloudy